www.pogodaiklimat.ru

Погода и климат >> Архив погоды >> Пакистан >> Ханпур


ПОГОДА в Ханпуре

  • Прогноз погоды в Ханпуре
  • Монитор погоды в Ханпуре

АРХИВ ПОГОДЫ в Ханпуре

Время (UTC), дата Ветер
(напр.,м/с)
 
Видим.   Явления Облачность Т
(С)
Тd
(С)
f
(%)
Тe
(С)
Тes
(С)
Комфортность P
(гПа)
Po
(гПа)
Тmin
(С)
Tmax
(С)
R
(мм)
R24
(мм)
S
(см)
21 10.06 ЮЗ 1 4000 м дым ясно +32.0 +23.4 60 +43 +43 опасность
перегрева
994.2 984.4
00 11.06 штиль 0 4000 м дым ясно +30.0 +22.8 65 +40 +40 очень
душно
994.5 984.7
03 11.06 штиль 0 4000 м дым ясно +33.5 +24.4 59 +46 +55 опасность
перегрева
996.0 986.2 +29.5
06 11.06 ЮЗ 3 4000 м дым ясно +36.0 +25.6 55 +51 +69 опасность
перегрева
996.1 986.4
09 11.06 ЮЗ 2 4000 м мгла ясно +42.0 +24.8 38 +54 +72 опасность
перегрева
994.2 1000.0
12 11.06 штиль 0 4000 м мгла ясно +43.0 +23.5 33 +52 +59 опасность
перегрева
993.1 983.7 +44.1
15 11.06 штиль 0 4000 м мгла ясно +39.0 +25.2 46 +52 +52 опасность
перегрева
992.8 1000.0
18 11.06 штиль 0 4000 м дым ясно +36.0 +24.9 53 +49 +49 опасность
перегрева
993.9 984.3
21 11.06 штиль 0 4000 м дым ясно +33.0 +23.0 56 +43 +43 опасность
перегрева
992.8 1000.0
00 12.06 ЮЗ 3 4000 м дым ясно +31.0 +23.1 63 +41 +41 опасность
перегрева
992.9 983.2
03 12.06 ЮЗ 2 4000 м дым ясно +32.0 +23.4 60 +43 +50 опасность
перегрева
994.1 984.4 +30.1
06 12.06 СВ 5 4000 м дым 6/0
[Ac trans]
+36.0 +26.4 58 +53 +59 опасность
перегрева
996.9 987.3
09 12.06 СВ 3 4000 м мгла 6/0
[Ac trans]
+38.5 +23.8 43 +49 +60 опасность
перегрева
995.9 1000.0
12 12.06 СВ 6 2000 м пыль ясно +38.5 +23.8 43 +49 +51 опасность
перегрева
995.0 985.4 +39.5
15 12.06 штиль 0 4000 м мгла ясно +35.0 +23.7 52 +46 +46 опасность
перегрева
995.4 1000.0
18 12.06 СВ 2 4000 м дым ясно +31.0 +23.1 63 +41 +41 опасность
перегрева
997.0 987.2
21 12.06 штиль 0 4000 м дым ясно +28.5 +22.7 71 +38 +38 очень
душно
996.2 986.3
00 13.06 штиль 0 4000 м дым ясно +28.0 +22.1 70 +36 +36 очень
душно
996.6 986.6
03 13.06 штиль 0 4000 м дым ясно +30.0 +22.8 65 +40 +48 очень
душно
998.5 988.7 +26.5
06 13.06 СВ 2 4000 м мгла ясно +37.0 +24.4 49 +49 +71 опасность
перегрева
1001.0 991.4
09 13.06 СВ 1 4000 м мгла ясно +41.5 +20.5 30 +47 +71 опасность
перегрева
998.8 1000.0
12 13.06 СВ 1 4000 м мгла ясно +42.0 +20.2 29 +47 +53 опасность
перегрева
996.6 987.1 +43.3
15 13.06 штиль 0 4000 м дым ясно +36.5 +24.0 49 +48 +48 опасность
перегрева
996.5 986.9
18 13.06 штиль 0 4000 м дым ясно +34.0 +24.1 56 +46 +46 опасность
перегрева
998.2 988.5
21 13.06 штиль 0 4000 м дым ясно +32.0 +23.4 60 +43 +43 опасность
перегрева
997.3 1000.0
00 14.06 штиль 0 4000 м дым ясно +29.5 +23.0 68 +39 +39 очень
душно
997.1 987.3
03 14.06 штиль 0 4000 м дым ясно +31.0 +22.3 60 +40 +49 очень
душно
999.4 989.0 +28.5
06 14.06 ЮЗ 3 4000 м мгла ясно +38.0 +24.8 47 +51 +69 опасность
перегрева
1000.5 990.9
09 14.06 ЮЗ 3 4000 м мгла ясно +40.5 +26.2 45 +56 +73 опасность
перегрева
998.6 1000.0
12 14.06 ЮЗ 3 4000 м мгла ясно +42.0 +27.2 44 +59 +63 опасность
перегрева
996.6 987.1 +42.5
15 14.06 штиль 0 4000 м мгла 5/0
[Ac trans]
+37.5 +24.2 47 +49 +49 опасность
перегрева
996.6 1000.0
18 14.06 штиль 0 4000 м дым ясно +34.0 +25.7 62 +49 +49 опасность
перегрева
999.0 989.3
21 14.06 штиль 0 4000 м дым ясно +31.0 +23.1 63 +41 +41 опасность
перегрева
996.9 987.1
00 15.06 ЮЗ 2 4000 м дым ясно +30.0 +22.8 65 +40 +40 очень
душно
996.5 986.7
03 15.06 ЮЗ 1 4000 м дым ясно +33.0 +25.3 64 +47 +55 опасность
перегрева
998.5 988.5 +29.5
06 15.06 ЮЗ 1 4000 м мгла ясно +38.5 +25.4 48 +53 +78 опасность
перегрева
1000.1 990.5
09 15.06 ЮЗ 1 4000 м мгла ясно +41.0 +26.0 43 +55 +77 опасность
перегрева
998.5 1000.0
12 15.06 ЮЗ 1 4000 м мгла ясно +42.0 +26.4 42 +57 +63 опасность
перегрева
996.4 986.9 +43.3
15 15.06 штиль 0 4000 м дым ясно +37.0 +25.2 51 +51 +51 опасность
перегрева
994.3 984.7
18 15.06 штиль 0 4000 м дым ясно +34.0 +24.1 56 +46 +46 опасность
перегрева
996.4 986.7
21 15.06 штиль 0 4000 м дым ясно +31.0 +23.1 63 +41 +41 опасность
перегрева
995.7 1000.0
00 16.06 ЮЗ 2 4000 м дым ясно +30.5 +23.3 65 +41 +41 опасность
перегрева
996.5 986.7
03 16.06 штиль 0 4000 м дым ясно +34.0 +24.1 56 +46 +54 опасность
перегрева
998.7 989.0 +30.1
06 16.06 ЮЗ 3 4000 м мгла ясно +38.0 +24.0 45 +49 +67 опасность
перегрева
1000.4 990.8
09 16.06 ЮЗ 3 4000 м мгла ясно +40.0 +23.9 40 +51 +67 опасность
перегрева
998.5 1000.0
12 16.06 ЮЗ 3 4000 м мгла ясно +40.0 +26.4 47 +56 +60 опасность
перегрева
996.0 986.5 +41.3
15 16.06 штиль 0 4000 м дым 6/6 1200 м
[Sc]
+36.0 +25.6 55 +51 +51 опасность
перегрева
997.0 987.3
18 16.06 штиль 0 4000 м дым ясно +34.0 +24.9 59 +47 +47 опасность
перегрева
998.2 988.5
21 16.06 штиль 0 4000 м дым ясно +32.0 +25.0 67 +46 +46 опасность
перегрева
997.2 987.4
00 17.06 ЮЗ 4 4000 м дым ясно +31.0 +24.6 69 +44 +44 опасность
перегрева
997.4 987.6
03 17.06 ЮЗ 3 4000 м дым ясно +33.0 +24.6 61 +46 +51 опасность
перегрева
998.9 989.1 +30.5
06 17.06 ЮЗ 5 2000 м пыльный позёмок ясно +36.0 +23.2 48 +46 +58 опасность
перегрева
1000.0 990.3
09 17.06 ЮЗ 4 2000 м пыльный позёмок ясно +40.0 +24.8 42 +52 +66 опасность
перегрева
997.8 1000.0
12 17.06 ЮЗ 4 2000 м пыльный позёмок ясно +40.0 +24.8 42 +52 +55 опасность
перегрева
995.6 986.1 +40.5
15 17.06 штиль 0 4000 м дым ясно +35.0 +24.5 55 +48 +48 опасность
перегрева
994.5 984.8
18 17.06 штиль 0 4000 м дым ясно +33.0 +24.6 61 +46 +46 опасность
перегрева
996.7 986.9

 

Местоположение метеостанции Ханпур (Пакистан): широта 28.65 долгота 70.68 высота над уровнем моря 88 м.

В архиве по умолчанию представлена погода в Ханпуре за последнюю неделю. Архивные данные за месяц целиком и за предыдущие месяцы, начиная с января 2011 года, Вы можете получить, выбрав интересующий диапазон дат из раскрывающегося списка и нажав кнопку "Ввод!".


*Определитесь, кто Вы:
робот инопланетянин человек

Внимание! Время в таблицах - всемирное. Для получения местного времени необходимо прибавить поправку, которая равна 5 ч.

Смотрите также архив погоды в соседних городах и на ближайших метеорологических станциях:

Погода в Рахим Яр Хан (Пакистан) (43 км)
Погода в Бахавалпуре (Пакистан) (136 км)
Погода а Бахавалпур аэропорту (Пакистан) (136 км)
Погода в Дера Гази Хан (Пакистан) (156 км)
Погода в Бархане (Пакистан) (166 км)
Погода в Мултане (Пакистан) (187 км)
Погода в Джайсалмере (Раджастхан, Индия) (196 км)
Погода в Кот Адду (Пакистан) (202 км)
Погода в Рохри (Пакистан) (206 км)
Погода в Суккуре (Пакистан) (214 км)

Пояснения к столбцам:

Ветер - указаны скорость ветра в м/с - средняя за 10 мин, порывы в срок и между сроками (в фигурных скобках) и направление, откуда дует ветер: С - северный, СВ - северо-восточный, В - восточный, ЮВ - юго-восточный, Ю - южный, ЮЗ - юго-западный, З - западный, СЗ - северо-западный.
Видимость - горизонтальная дальность видимости в метрах или километрах. При видимости от 1 до 10 км при отсутствии осадков обычно наблюдается дымка, при ухудшении видимости до 1 км и менее - туман. В сухую погоду видимость может ухудшаться дымом, пылью или мглою.
Явления - указаны атмосферные явления, наблюдавшиеся в срок или в последний час перед сроком; фигурными скобками обозначены явления, наблюдавшиеся между сроками (за 1-3 часа до срока); квадратными скобками обозначены град или гололедные отложения с указанием их диаметра в мм.
Облачность - указаны через наклонную черту общая и нижняя облачность в баллах и высота нижней границы облаков в метрах; квадратными скобками обозначены формы облаков: Ci - перистые, Cs - перисто-слоистые, Cc - перисто-кучевые, Ac - высококучевые, As - высокослоистые, Sc - слоисто-кучевые, Ns - слоисто-дождевые, Cu - кучевые, Cb - кучево-дождевые. Подробнее классификацию облаков см. в Атласе облаков (PDF).
T - Температура воздуха - температура, измеренная на высоте 2 м над землей.
Td - Температура точки росы - температура, при понижении до которой содержащийся в воздухе водяной пар достигнет насыщения.
f - Относительная влажность воздуха - влажноcть воздуха, измеренная на высоте 2 м над землей.
Te - Эффективная температура - температура, которую ощущает одетый по сезону человек в тени. Характеристика душности погоды. При расчете учитывается влияние влажности воздуха и скорости ветра на теплоощущения человека.
Tes - Эффективная температура на солнце - температура, которую ощущает человек, с поправкой на солнечный нагрев. Характеристика знойности погоды. Зависит от высоты солнца над горизонтом, облачности и скорости ветра. Ночью, в пасмурную погоду, а также при ветре 12 м/с и более поправка равна нулю.
P - Атмосферное давление - приведенное к уровню моря атмосферное давление.
Po - Атмосферное давление - измеренное на уровне метеостанции атмосферное давление.
Tmin - Минимальная температура - минимум температуры воздуха на высоте 2 м над землей.
Tmax - Максимальная температура - максимум температуры воздуха на высоте 2 м над землей.
R - Количество осадков - Количество выпавших осадков за период времени, мм. При наведении курсора мыши на число - период времени, за который выпало указанное количество осадков.
R24 - Количество осадков - Количество выпавших осадков за 24 часа, мм.
S - Снежный покров - Высота снежного покрова, см. При наведении курсора мыши на число - состояние снежного покрова и степень покрытия местности в баллах.